Tracking 30923 objects as of 1-Jul-2025
HD Live streaming from Space Station
objects crossing your sky now

PSLV R/B

Track PSLV R/B now!
10-day predictions


NORAD ID: 38757
Int'l Code: 2012-047C
Perigee: 624.1 km
Apogee: 633.3 km
Inclination: 98.3 °
Period: 97.1 minutes
Semi major axis: 6999 km
RCS: 5.395 m2 (large)
Launch date: September 9, 2012
Source: India (IND)
Launch site: SRIHARIKOTA (SRI)

Note: This is a ROCKET BODY
Your satellite tracking list
Your tracking list is empty




NASA's NSSDC Master Catalog

Two Line Element Set (TLE):
1 38757U 12047C   25181.46890099  .00000550  00000-0  75749-4 0  9992
2 38757  98.3215   6.9146 0006581  61.6624 298.5251 14.82466764690758
Source of the keplerian elements: AFSPC